• In France
  • List of Countries
  • For 7 days
  • Water Temperature
  • Satellite Maps
  • Weather Map
  • Weather Widgets
  • user-avatar
    Login

    Hourly Weather San José

    Today, 16 December, Saturday

    Time Temperature Precipitation Wind Pressure Humidity
    00:00 +16°C° 0 mm 1 mps 662 mmHg 77%
    01:00 +16°C° 0 mm 1 mps 661 mmHg 79%
    02:00 +16°C° 0 mm 1 mps 661 mmHg 80%
    03:00 +18°C° 0 mm 1 mps 661 mmHg 81%
    04:00 +18°C° 0 mm 1 mps 661 mmHg 82%
    05:00 +18°C° 0 mm 1 mps 662 mmHg 82%
    06:00 +18°C° 0 mm 2 mps 662 mmHg 83%
    07:00 +20°C° 0 mm 2 mps 663 mmHg 77%
    08:00 +21°C° 0 mm 2 mps 664 mmHg 71%
    09:00 +24°C° 0 mm 2 mps 665 mmHg 65%
    10:00 +25°C° 0 mm 2 mps 664 mmHg 62%
    11:00 +26°C° 0 mm 2 mps 664 mmHg 59%
    12:00 +27°C° 0 mm 3 mps 664 mmHg 56%
    13:00 +26°C° 0 mm 3 mps 663 mmHg 58%
    14:00 +26°C° 0 mm 2 mps 663 mmHg 60%
    15:00 +25°C° 0 mm 2 mps 662 mmHg 62%
    16:00 +23°C° 0 mm 2 mps 662 mmHg 70%
    17:00 +20°C° 0 mm 2 mps 661 mmHg 79%
    18:00 +18°C° 0 mm 2 mps 661 mmHg 88%
    19:00 +18°C° 0 mm 2 mps 661 mmHg 86%
    20:00 +18°C° 0 mm 2 mps 662 mmHg 85%
    21:00 +18°C° 0 mm 2 mps 662 mmHg 83%
    22:00 +17°C° 0 mm 2 mps 662 mmHg 82%
    23:00 +17°C° 0 mm 2 mps 662 mmHg 81%

    Tomorrow, 17 December, Sunday

    Time Temperature Precipitation Wind Pressure Humidity
    00:00 +17°C° 0 mm 2 mps 662 mmHg 79%
    01:00 +17°C° 0 mm 2 mps 662 mmHg 81%
    02:00 +17°C° 0 mm 2 mps 661 mmHg 83%
    03:00 +18°C° 0 mm 2 mps 661 mmHg 84%
    04:00 +18°C° 0 mm 2 mps 661 mmHg 84%
    05:00 +17°C° 0 mm 2 mps 661 mmHg 84%
    06:00 +17°C° 0 mm 2 mps 662 mmHg 83%
    07:00 +19°C° 0 mm 2 mps 663 mmHg 74%
    08:00 +23°C° 0 mm 2 mps 664 mmHg 64%
    09:00 +25°C° 0 mm 2 mps 665 mmHg 54%
    10:00 +26°C° 0 mm 2 mps 664 mmHg 54%
    11:00 +26°C° 0 mm 3 mps 664 mmHg 54%
    12:00 +27°C° 0 mm 3 mps 664 mmHg 55%
    13:00 +26°C° 0.1 mm 3 mps 663 mmHg 58%
    14:00 +26°C° 0.1 mm 2 mps 662 mmHg 62%
    15:00 +25°C° 0.1 mm 2 mps 662 mmHg 66%
    16:00 +23°C° 0.1 mm 2 mps 662 mmHg 74%
    17:00 +21°C° 0.1 mm 2 mps 661 mmHg 82%
    18:00 +20°C° 0.1 mm 1 mps 661 mmHg 89%
    19:00 +20°C° 0 mm 1 mps 662 mmHg 89%
    20:00 +19°C° 0 mm 1 mps 662 mmHg 89%
    21:00 +19°C° 0 mm 1 mps 662 mmHg 88%
    22:00 +19°C° 0 mm 1 mps 662 mmHg 87%
    23:00 +19°C° 0 mm 1 mps 662 mmHg 87%

    Day after tomorrow, 18 December, Monday

    Time Temperature Precipitation Wind Pressure Humidity
    00:00 +18°C° 0 mm 1 mps 662 mmHg 86%
    01:00 +18°C° 0 mm 1 mps 661 mmHg 85%
    02:00 +19°C° 0 mm 1 mps 661 mmHg 85%
    03:00 +19°C° 0 mm 1 mps 661 mmHg 85%
    04:00 +19°C° 0 mm 1 mps 661 mmHg 85%
    05:00 +18°C° 0 mm 2 mps 661 mmHg 85%
    06:00 +18°C° 0 mm 2 mps 662 mmHg 86%
    07:00 +19°C° 0 mm 2 mps 663 mmHg 80%
    08:00 +21°C° 0 mm 2 mps 664 mmHg 75%
    09:00 +24°C° 0 mm 2 mps 664 mmHg 69%
    10:00 +25°C° 0 mm 2 mps 664 mmHg 65%
    11:00 +26°C° 0 mm 2 mps 664 mmHg 61%
    12:00 +27°C° 0 mm 2 mps 664 mmHg 57%
    13:00 +26°C° 0 mm 2 mps 663 mmHg 59%
    14:00 +26°C° 0 mm 2 mps 663 mmHg 61%
    15:00 +25°C° 0 mm 2 mps 662 mmHg 63%
    16:00 +23°C° 0 mm 2 mps 662 mmHg 72%
    17:00 +21°C° 0 mm 1 mps 662 mmHg 81%
    18:00 +20°C° 0 mm 1 mps 661 mmHg 91%
    19:00 +19°C° 0 mm 1 mps 662 mmHg 89%
    20:00 +19°C° 0 mm 1 mps 662 mmHg 88%
    21:00 +19°C° 0 mm 1 mps 663 mmHg 87%
    22:00 +19°C° 0 mm 1 mps 663 mmHg 86%
    23:00 +18°C° 0 mm 1 mps 662 mmHg 86%

    19 December, Tuesday

    Time Temperature Precipitation Wind Pressure Humidity
    00:00 +18°C° 0 mm 1 mps 662 mmHg 86%
    01:00 +18°C° 0 mm 1 mps 662 mmHg 86%
    02:00 +18°C° 0 mm 1 mps 662 mmHg 86%
    03:00 +18°C° 0 mm 1 mps 661 mmHg 86%
    04:00 +18°C° 0 mm 1 mps 662 mmHg 86%
    05:00 +18°C° 0 mm 1 mps 662 mmHg 86%
    06:00 +18°C° 0 mm 1 mps 662 mmHg 86%
    07:00 +20°C° 0 mm 2 mps 663 mmHg 77%
    08:00 +23°C° 0 mm 2 mps 664 mmHg 68%
    09:00 +25°C° 0 mm 2 mps 665 mmHg 59%
    10:00 +26°C° 0 mm 2 mps 665 mmHg 57%
    11:00 +27°C° 0 mm 2 mps 664 mmHg 54%
    12:00 +28°C° 0 mm 3 mps 664 mmHg 51%
    13:00 +27°C° 0 mm 3 mps 663 mmHg 54%
    14:00 +26°C° 0 mm 2 mps 663 mmHg 57%
    15:00 +26°C° 0 mm 2 mps 662 mmHg 61%
    16:00 +24°C° 0 mm 2 mps 662 mmHg 71%
    17:00 +22°C° 0 mm 1 mps 662 mmHg 81%
    18:00 +20°C° 0 mm 1 mps 661 mmHg 91%
    19:00 +19°C° 0 mm 1 mps 662 mmHg 90%
    20:00 +19°C° 0 mm 1 mps 662 mmHg 88%
    21:00 +18°C° 0 mm 1 mps 663 mmHg 86%
    22:00 +18°C° 0 mm 1 mps 662 mmHg 85%
    23:00 +18°C° 0 mm 1 mps 662 mmHg 84%

    20 December, Wednesday

    Time Temperature Precipitation Wind Pressure Humidity
    00:00 +18°C° 0 mm 1 mps 662 mmHg 83%
    01:00 +18°C° 0 mm 1 mps 662 mmHg 84%
    02:00 +18°C° 0 mm 1 mps 661 mmHg 84%
    03:00 +18°C° 0 mm 1 mps 661 mmHg 85%
    04:00 +18°C° 0 mm 1 mps 661 mmHg 85%
    05:00 +18°C° 0 mm 1 mps 662 mmHg 85%
    06:00 +19°C° 0 mm 1 mps 662 mmHg 86%
    07:00 +20°C° 0.1 mm 1 mps 663 mmHg 81%
    08:00 +22°C° 0.1 mm 1 mps 664 mmHg 76%
    09:00 +24°C° 0.1 mm 1 mps 665 mmHg 71%
    10:00 +24°C° 0.1 mm 2 mps 664 mmHg 69%
    11:00 +25°C° 0.1 mm 2 mps 664 mmHg 66%
    12:00 +26°C° 0.1 mm 2 mps 663 mmHg 63%
    13:00 +25°C° 0.3 mm 2 mps 663 mmHg 66%
    14:00 +25°C° 0.3 mm 2 mps 662 mmHg 70%
    15:00 +24°C° 0.3 mm 2 mps 661 mmHg 73%
    16:00 +23°C° 0.1 mm 1 mps 661 mmHg 79%
    17:00 +21°C° 0.1 mm 1 mps 661 mmHg 84%
    18:00 +20°C° 0.1 mm 1 mps 661 mmHg 90%
    19:00 +20°C° 0 mm 1 mps 661 mmHg 89%
    20:00 +20°C° 0 mm 1 mps 662 mmHg 89%
    21:00 +19°C° 0 mm 1 mps 662 mmHg 88%
    22:00 +19°C° 0 mm 1 mps 662 mmHg 88%
    23:00 +19°C° 0 mm 1 mps 661 mmHg 87%

    21 December, Thursday

    Time Temperature Precipitation Wind Pressure Humidity
    00:00 +19°C° 0 mm 1 mps 661 mmHg 87%
    01:00 +19°C° 0 mm 1 mps 661 mmHg 87%
    02:00 +19°C° 0 mm 1 mps 661 mmHg 87%
    03:00 +19°C° 0 mm 1 mps 661 mmHg 87%
    04:00 +19°C° 0 mm 1 mps 661 mmHg 87%
    05:00 +19°C° 0 mm 1 mps 661 mmHg 87%
    06:00 +19°C° 0 mm 1 mps 662 mmHg 87%
    07:00 +21°C° 0 mm 1 mps 663 mmHg 78%
    08:00 +23°C° 0 mm 2 mps 664 mmHg 69%
    09:00 +25°C° 0 mm 2 mps 664 mmHg 59%
    10:00 +26°C° 0 mm 2 mps 664 mmHg 56%
    11:00 +27°C° 0 mm 2 mps 664 mmHg 52%
    12:00 +28°C° 0 mm 3 mps 664 mmHg 48%
    13:00 +27°C° 0 mm 2 mps 663 mmHg 50%
    14:00 +27°C° 0 mm 2 mps 662 mmHg 52%
    15:00 +26°C° 0 mm 2 mps 662 mmHg 54%
    16:00 +24°C° 0 mm 2 mps 662 mmHg 65%
    17:00 +21°C° 0 mm 2 mps 661 mmHg 76%
    18:00 +19°C° 0 mm 1 mps 661 mmHg 87%
    19:00 +19°C° 0 mm 1 mps 661 mmHg 85%
    20:00 +19°C° 0 mm 1 mps 662 mmHg 83%
    21:00 +19°C° 0 mm 1 mps 662 mmHg 80%
    22:00 +19°C° 0 mm 1 mps 662 mmHg 81%
    23:00 +19°C° 0 mm 1 mps 662 mmHg 82%
    Show more

    XHprof extension not loaded